Location: Orange
(33.2833°S, 149.1000°E)
Time: 19:28:33
(UTC+11:00)

Tiangong - Visible Passes

Search period start: 09 December 2023 00:00
Search period end: 19 December 2023 00:00
Orbit: 372 x 383 km, 41.5° (Epoch: 08 December)

Date Brightness Start Highest point End Pass type
(mag) Time Alt. Az. Time Alt. Az. Time Alt. Az.
09 Dec -2.1 04:06:41 25° WSW 04:08:22 77° SSE 04:11:28 10° ENE visible
09 Dec 0.0 20:37:45 10° NNE 20:38:39 11° NE 20:39:34 10° ENE visible
09 Dec 0.6 22:11:49 10° WNW 22:12:06 12° WNW 22:12:06 12° WNW visible
10 Dec -1.2 04:41:54 21° WNW 04:43:03 26° NW 04:45:44 10° NNE visible
10 Dec -1.8 21:10:09 10° NW 21:13:09 41° NNE 21:15:34 14° E visible
10 Dec 0.7 22:47:00 10° W 22:47:46 15° WSW 22:47:46 15° WSW visible
11 Dec -1.4 21:44:47 10° WNW 21:47:52 53° SSW 21:50:21 15° SE visible
12 Dec -2.2 20:42:47 10° WNW 20:45:56 79° NNE 20:49:06 10° ESE visible
12 Dec 0.2 22:20:12 10° WSW 22:22:51 24° SSW 22:24:21 17° SSE visible
13 Dec -0.4 21:17:49 10° W 21:20:45 34° SSW 21:23:42 10° SE visible
13 Dec 0.7 22:55:42 10° SW 22:57:49 18° S 22:57:49 18° S visible
14 Dec 0.5 21:53:20 10° WSW 21:55:47 20° S 21:58:14 10° SE visible
14 Dec 1.4 23:30:40 10° SW 23:30:57 11° SW 23:30:57 11° SW visible
15 Dec 0.2 20:50:52 10° WSW 20:53:35 25° SSW 20:56:18 10° SE visible
15 Dec 0.4 22:28:36 10° SW 22:30:54 18° S 22:31:50 16° SSE visible
16 Dec 0.6 21:26:18 10° SW 21:28:38 18° S 21:30:57 10° SE visible
16 Dec 0.7 23:03:16 10° SW 23:04:38 19° SSW 23:04:38 19° SSW visible
17 Dec 0.3 22:01:16 10° SW 22:03:42 20° S 22:05:18 14° SE visible
18 Dec 0.5 20:59:05 10° SW 21:01:24 18° S 21:03:41 10° SE visible
18 Dec -0.2 22:35:42 10° SW 22:37:58 29° S 22:37:58 29° S visible
